• In Deutschland
  • Länderverzeichnis
  • Für 7 Tage
  • Wassertemperatur
  • Satellitenkarten
  • Wetterkarte
  • Widgets
  • user-avatar
    Anmelden

    Stündliche Wetter Melbourne

    Heute, 22 Februar, Donnerstag

    Zeit Temperatur Niederschläge Wind Luftdruck Luftfeuchtigkeit
    00:00 +23°C° 0 mm 1 m/S 759 mmHg 54%
    01:00 +23°C° 0 mm 2 m/S 759 mmHg 55%
    02:00 +23°C° 0 mm 1 m/S 759 mmHg 57%
    03:00 +22°C° 0 mm 1 m/S 759 mmHg 58%
    04:00 +22°C° 0 mm 1 m/S 758 mmHg 58%
    05:00 +22°C° 0,1 mm 1 m/S 759 mmHg 61%
    06:00 +22°C° 0,1 mm 1 m/S 759 mmHg 63%
    07:00 +22°C° 0,1 mm 1 m/S 759 mmHg 65%
    08:00 +23°C° 0,1 mm 1 m/S 759 mmHg 65%
    09:00 +23°C° 0,1 mm 1 m/S 759 mmHg 65%
    10:00 +23°C° 0,1 mm 1 m/S 760 mmHg 64%
    11:00 +24°C° 0,1 mm 2 m/S 759 mmHg 61%
    12:00 +24°C° 0,1 mm 2 m/S 759 mmHg 59%
    13:00 +25°C° 0,1 mm 2 m/S 759 mmHg 56%
    14:00 +26°C° 0 mm 2 m/S 759 mmHg 51%
    15:00 +27°C° 0 mm 2 m/S 758 mmHg 47%
    16:00 +28°C° 0 mm 2 m/S 758 mmHg 42%
    17:00 +27°C° 0 mm 2 m/S 758 mmHg 47%
    18:00 +26°C° 0 mm 2 m/S 758 mmHg 51%
    19:00 +25°C° 0 mm 1 m/S 758 mmHg 56%
    20:00 +24°C° 0,1 mm 1 m/S 758 mmHg 59%
    21:00 +23°C° 0,1 mm 1 m/S 758 mmHg 63%
    22:00 +23°C° 0,1 mm 1 m/S 758 mmHg 66%
    23:00 +22°C° 0,1 mm 1 m/S 758 mmHg 68%

    Morgen, 23 Februar, Freitag

    Zeit Temperatur Niederschläge Wind Luftdruck Luftfeuchtigkeit
    00:00 +22°C° 0,1 mm 1 m/S 758 mmHg 70%
    01:00 +22°C° 0,1 mm 1 m/S 758 mmHg 72%
    02:00 +21°C° 0,3 mm 1 m/S 757 mmHg 76%
    03:00 +21°C° 0,3 mm 1 m/S 757 mmHg 80%
    04:00 +21°C° 0,3 mm 1 m/S 757 mmHg 83%
    05:00 +20°C° 0,7 mm 2 m/S 757 mmHg 85%
    06:00 +20°C° 0,7 mm 2 m/S 757 mmHg 86%
    07:00 +20°C° 0,7 mm 3 m/S 757 mmHg 88%
    08:00 +21°C° 0,1 mm 3 m/S 757 mmHg 79%
    09:00 +24°C° 0,1 mm 3 m/S 757 mmHg 71%
    10:00 +26°C° 0,1 mm 4 m/S 757 mmHg 62%
    11:00 +28°C° 0 mm 4 m/S 756 mmHg 54%
    12:00 +30°C° 0 mm 5 m/S 755 mmHg 46%
    13:00 +33°C° 0 mm 5 m/S 755 mmHg 37%
    14:00 +34°C° 0 mm 5 m/S 754 mmHg 36%
    15:00 +34°C° 0 mm 4 m/S 753 mmHg 35%
    16:00 +35°C° 0 mm 4 m/S 753 mmHg 34%
    17:00 +34°C° 0 mm 4 m/S 753 mmHg 38%
    18:00 +33°C° 0 mm 4 m/S 752 mmHg 41%
    19:00 +32°C° 0 mm 4 m/S 752 mmHg 44%
    20:00 +30°C° 0 mm 4 m/S 752 mmHg 42%
    21:00 +30°C° 0 mm 5 m/S 752 mmHg 40%
    22:00 +29°C° 0 mm 5 m/S 752 mmHg 39%
    23:00 +29°C° 0 mm 5 m/S 752 mmHg 39%

    übermorgen, 24 Februar, Samstag

    Zeit Temperatur Niederschläge Wind Luftdruck Luftfeuchtigkeit
    00:00 +28°C° 0 mm 5 m/S 752 mmHg 39%
    01:00 +28°C° 0 mm 5 m/S 751 mmHg 40%
    02:00 +28°C° 0,3 mm 5 m/S 751 mmHg 44%
    03:00 +28°C° 0,3 mm 6 m/S 750 mmHg 49%
    04:00 +28°C° 0,3 mm 6 m/S 750 mmHg 54%
    05:00 +28°C° 0,5 mm 6 m/S 750 mmHg 57%
    06:00 +28°C° 0,5 mm 6 m/S 750 mmHg 60%
    07:00 +27°C° 0,5 mm 6 m/S 750 mmHg 64%
    08:00 +28°C° 0,4 mm 6 m/S 750 mmHg 66%
    09:00 +28°C° 0,4 mm 6 m/S 750 mmHg 68%
    10:00 +28°C° 0,4 mm 6 m/S 750 mmHg 70%
    11:00 +28°C° 0,8 mm 6 m/S 749 mmHg 71%
    12:00 +27°C° 0,8 mm 6 m/S 749 mmHg 72%
    13:00 +27°C° 0,8 mm 6 m/S 749 mmHg 73%
    14:00 +26°C° 0,4 mm 6 m/S 749 mmHg 75%
    15:00 +25°C° 0,4 mm 5 m/S 749 mmHg 76%
    16:00 +23°C° 0,4 mm 4 m/S 749 mmHg 77%
    17:00 +22°C° 0,2 mm 4 m/S 750 mmHg 77%
    18:00 +21°C° 0,2 mm 4 m/S 750 mmHg 78%
    19:00 +21°C° 0,2 mm 3 m/S 750 mmHg 78%
    20:00 +20°C° 0 mm 3 m/S 751 mmHg 80%
    21:00 +19°C° 0 mm 2 m/S 751 mmHg 82%
    22:00 +18°C° 0 mm 2 m/S 752 mmHg 83%
    23:00 +18°C° 0,6 mm 3 m/S 752 mmHg 84%

    25 Februar, Sonntag

    Zeit Temperatur Niederschläge Wind Luftdruck Luftfeuchtigkeit
    00:00 +17°C° 0,6 mm 4 m/S 752 mmHg 85%
    01:00 +16°C° 0,6 mm 5 m/S 752 mmHg 86%
    02:00 +15°C° 0,3 mm 5 m/S 752 mmHg 86%
    03:00 +14°C° 0,3 mm 6 m/S 752 mmHg 85%
    04:00 +14°C° 0,3 mm 6 m/S 753 mmHg 84%
    05:00 +13°C° 0,2 mm 6 m/S 753 mmHg 82%
    06:00 +13°C° 0,2 mm 6 m/S 754 mmHg 79%
    07:00 +11°C° 0,2 mm 6 m/S 755 mmHg 76%
    08:00 +14°C° 0,1 mm 6 m/S 755 mmHg 70%
    09:00 +16°C° 0,1 mm 6 m/S 756 mmHg 63%
    10:00 +17°C° 0,1 mm 7 m/S 756 mmHg 56%
    11:00 +18°C° 0,2 mm 7 m/S 756 mmHg 58%
    12:00 +18°C° 0,2 mm 7 m/S 756 mmHg 60%
    13:00 +19°C° 0,2 mm 6 m/S 756 mmHg 62%
    14:00 +19°C° 0,2 mm 6 m/S 757 mmHg 62%
    15:00 +19°C° 0,2 mm 6 m/S 757 mmHg 63%
    16:00 +19°C° 0,2 mm 6 m/S 757 mmHg 64%
    17:00 +17°C° 0 mm 5 m/S 758 mmHg 65%
    18:00 +17°C° 0 mm 5 m/S 758 mmHg 67%
    19:00 +17°C° 0 mm 4 m/S 759 mmHg 68%
    20:00 +16°C° 0 mm 3 m/S 759 mmHg 71%
    21:00 +16°C° 0 mm 3 m/S 760 mmHg 74%
    22:00 +14°C° 0 mm 3 m/S 760 mmHg 78%
    23:00 +14°C° 0 mm 3 m/S 760 mmHg 80%

    26 Februar, Montag

    Zeit Temperatur Niederschläge Wind Luftdruck Luftfeuchtigkeit
    00:00 +13°C° 0 mm 3 m/S 760 mmHg 81%
    01:00 +13°C° 0 mm 3 m/S 760 mmHg 83%
    02:00 +14°C° 0 mm 2 m/S 760 mmHg 85%
    03:00 +13°C° 0 mm 2 m/S 760 mmHg 87%
    04:00 +13°C° 0 mm 2 m/S 760 mmHg 89%
    05:00 +13°C° 0 mm 2 m/S 760 mmHg 88%
    06:00 +14°C° 0 mm 2 m/S 760 mmHg 87%
    07:00 +14°C° 0 mm 2 m/S 761 mmHg 86%
    08:00 +16°C° 0 mm 2 m/S 761 mmHg 76%
    09:00 +18°C° 0 mm 2 m/S 761 mmHg 66%
    10:00 +20°C° 0 mm 2 m/S 761 mmHg 56%
    11:00 +21°C° 0 mm 2 m/S 760 mmHg 51%
    12:00 +23°C° 0 mm 2 m/S 760 mmHg 46%
    13:00 +25°C° 0 mm 2 m/S 759 mmHg 41%
    14:00 +25°C° 0 mm 3 m/S 759 mmHg 42%
    15:00 +24°C° 0 mm 3 m/S 759 mmHg 43%
    16:00 +24°C° 0 mm 3 m/S 758 mmHg 43%
    17:00 +22°C° 0 mm 3 m/S 759 mmHg 50%
    18:00 +20°C° 0 mm 3 m/S 759 mmHg 57%
    19:00 +18°C° 0 mm 3 m/S 759 mmHg 63%
    20:00 +17°C° 0 mm 2 m/S 759 mmHg 69%
    21:00 +16°C° 0 mm 2 m/S 760 mmHg 75%
    22:00 +15°C° 0 mm 2 m/S 760 mmHg 80%
    23:00 +15°C° 0 mm 1 m/S 760 mmHg 83%

    27 Februar, Dienstag

    Zeit Temperatur Niederschläge Wind Luftdruck Luftfeuchtigkeit
    00:00 +15°C° 0 mm 1 m/S 759 mmHg 85%
    01:00 +14°C° 0 mm 1 m/S 759 mmHg 88%
    02:00 +14°C° 0 mm 1 m/S 759 mmHg 87%
    03:00 +14°C° 0 mm 1 m/S 759 mmHg 86%
    04:00 +14°C° 0 mm 1 m/S 758 mmHg 84%
    05:00 +15°C° 0 mm 1 m/S 759 mmHg 80%
    06:00 +16°C° 0 mm 2 m/S 759 mmHg 75%
    07:00 +16°C° 0 mm 2 m/S 759 mmHg 71%
    08:00 +19°C° 0 mm 2 m/S 759 mmHg 59%
    09:00 +22°C° 0 mm 3 m/S 759 mmHg 48%
    10:00 +26°C° 0 mm 3 m/S 759 mmHg 36%
    11:00 +28°C° 0 mm 3 m/S 758 mmHg 32%
    12:00 +30°C° 0 mm 3 m/S 757 mmHg 28%
    13:00 +31°C° 0 mm 3 m/S 757 mmHg 24%
    14:00 +33°C° 0 mm 3 m/S 756 mmHg 23%
    15:00 +33°C° 0 mm 3 m/S 756 mmHg 22%
    16:00 +33°C° 0 mm 3 m/S 755 mmHg 22%
    17:00 +30°C° 0 mm 2 m/S 755 mmHg 26%
    18:00 +28°C° 0 mm 2 m/S 755 mmHg 31%
    19:00 +27°C° 0 mm 2 m/S 754 mmHg 35%
    20:00 +25°C° 0 mm 2 m/S 754 mmHg 37%
    21:00 +24°C° 0 mm 2 m/S 754 mmHg 38%
    22:00 +22°C° 0 mm 3 m/S 754 mmHg 39%
    23:00 +22°C° 0 mm 3 m/S 753 mmHg 38%
    Mehr zeigen